Skip Page Navigation
NASA JPL Caltech
NASA Logo - Jet Propulsion Laboratory + View the NASA Portal
+ Center for Near-Earth Object Studies
JPL Home Earth Solar System Stars & Galaxies Technology
JPL Solar System Dynamics
BODIES ORBITS EPHEMERIDES TOOLS PHYSICAL DATA DISCOVERY FAQ SITE MAP
IMPORTANT: The SSD Announcement email list is now available. Major changes are coming in the near future, including possible hostname and/or URL changes. To be notified of such changes, subscribe to this email list.

Please visit this page for more details.


JPL Small-Body Database Browser
Search: [ help ]  
172352 (2002 VG127)
Classification: Main-belt Asteroid          SPK-ID: 2172352
Ephemeris | Orbit Diagram | Orbital Elements | Mission Design | Physical Parameters | Discovery Circumstances | Close-Approach Data ]

[ show orbit diagram ]
Orbital Elements at Epoch 2459000.5 (2020-May-31.0) TDB
Reference: JPL 9 (heliocentric ecliptic J2000)
 Element Value Uncertainty (1-sigma)   Units 
e .1844126582197209 7.1357e-08  
a 2.86731635796366 2.7619e-08 au
q 2.338546926434693 2.122e-07 au
i 7.104206789997396 6.0684e-06 deg
node 232.3681327118157 4.9957e-05 deg
peri 125.7777710164865 5.1955e-05 deg
M 263.2080441716212 1.5289e-05 deg
tp 2459477.313573659549
(2021-Sep-19.81357366)
7.8571e-05 TDB
period 1773.420994011055
4.86
2.5624e-05
7.015e-08
d
yr
n .202997484080622 2.933e-09 deg/d
Q 3.396085789492628 3.2713e-08 au
  Orbit Determination Parameters
   # obs. used (total)      261  
   data-arc span      7831 days (21.44 yr)  
   first obs. used      1997-10-31  
   last obs. used      2019-04-10  
   planetary ephem.      DE431  
   SB-pert. ephem.      SB431-N16  
   condition code      0  
   norm. resid. RMS      .62595  
   source      ORB  
   producer      Otto Matic  
   solution date      2019-Jul-13 09:04:21  

Additional Information
 Earth MOID = 1.34399 au 
 Jupiter MOID = 2.12443 au 
 T_jup = 3.263 
[ show covariance matrix ]

Ephemeris | Orbit Diagram | Orbital Elements | Mission Design | Physical Parameters | Discovery Circumstances | Close-Approach Data ]

Physical Parameter Table
Parameter Symbol Value Units Sigma Reference Notes
absolute magnitude H 15.6   n/a MPO433106  

172352 (2002 VG127)          Discovered 2002-Nov-14 by LINEAR at Socorro
Reference: 20071224/Numbers.arcLast Updated: 2007-12-22

[ show close-approach data ]
Ephemeris | Orbit Diagram | Orbital Elements | Mission Design | Physical Parameters | Discovery Circumstances | Close-Approach Data ]
ABOUT SSD CREDITS/AWARDS PRIVACY/COPYRIGHT GLOSSARY LINKS
FirstGov 2020-Feb-21 05:22 UT
(server date/time)  
NASA Home Page
Site Manager:   Ryan S. Park
Webmaster  Alan B. Chamberlin